Location: Croagnes
(43.9363°N, 5.3265°E)
Time: 21:53:56
(UTC+00:00)

KORONAS-FOTON - Visible Passes

Search period start: 29 September 2020 00:00
Search period end: 09 October 2020 00:00
Orbit: 507 x 531 km, 82.4° (Epoch: 29 September)

Date Brightness Start Highest point End Pass type
(mag) Time Alt. Az. Time Alt. Az. Time Alt. Az.
29 Sep 3.8 18:24:50 10° N 18:28:46 88° ENE 18:32:40 10° S visible
30 Sep 3.7 18:10:47 10° N 18:14:43 74° E 18:18:36 10° SSE visible
01 Oct 3.8 17:56:45 10° N 18:00:39 62° E 18:04:29 10° SSE visible
02 Oct 4.0 17:42:44 10° N 17:46:35 51° ENE 17:50:22 10° SSE visible
02 Oct 7.3 19:20:27 10° WNW 19:21:51 12° W 19:23:14 10° WSW visible
03 Oct 7.1 19:05:51 10° NW 19:07:52 14° W 19:09:51 10° WSW visible
04 Oct 7.1 18:51:26 10° NW 18:53:52 16° W 18:56:16 10° SW visible
05 Oct 6.9 18:37:06 10° NW 18:39:52 19° W 18:42:35 10° SW visible
06 Oct 6.7 18:22:50 10° NW 18:25:51 22° W 18:28:51 10° SW visible
07 Oct 6.4 18:08:36 10° NNW 18:11:50 25° W 18:15:02 10° SW visible
08 Oct 6.1 17:54:23 10° NNW 17:57:49 29° W 18:01:12 10° SSW visible
